NOAA 16 DEB

Satellite information

Favourite Embed

Satellite Type and Status

DEBRISIN ORBIT

Key statistics

Satellite NOAA 16 DEB at a glance.

Uptime

9215

Days in orbit

Revolutions

≈ 15.4

Per day

Orbit

SSO

Sun Synchronous Orbit

Inclination

99.1

Latest

Satellite identification and parameters

Extended collection of information and parameters for NOAA 16 DEB.

Object identification

Identified? True

Debris? True

Object name: NOAA 16 DEB

International designator: 2000-055AJ

Object number (NORAD): 41075

Object ID (CCSDS): 41075

Country: UNITED STATES OF AMERICA (US)

Current information (Y/N): Y

RCS size: SMALL

Orbital parameters

Period: 93.807 minutes

Inclination: 99.0724 deg

SMA: 6838.864 km

Apoapsis: 499.338 km

Periapsis: 422.121 km

RAAN: 136.1848 deg

Eccentricy: 0.00564546

Argument of periapsis: 43.4487 deg

Mean anomaly: 317.1179 deg

Mean motion: 15.3506505 rev/day

Mean motion (dot): 0.00092061 rev/day2

B* drag term: 0.0025443155 1/REarth

Two-line elements (TLE)

Creation date: Dec. 14, 2025, 3:07 a.m.

Reference frame: TEME

Reference center: EARTH

Epoch: Dec. 13, 2025, 4:22 p.m. UTC

TLE line 0: 0 NOAA 16 DEB

TLE line 1: 1 41075U 00055AJ 25347.68244475 .00092061 00000-0 25443-2 0 9996

TLE line 2: 2 41075 99.0724 136.1848 0056455 43.4487 317.1179 15.35065050537392

Live tracking on map

Real-time ground track for satellite NOAA 16 DEB.

In-orbit conjunctions

A list of the most updated potential collisions computed for object NOAA 16 DEB.

Target Orbit TCA Probability of collision Miss distance Type
SOLRAD 1 (GREB) LEO 2025-03-30 07:52:51 0.0002692356 467.0 (m) PAYLOAD
COSMOS 220 LEO 2025-03-18 11:37:29 0.0005122131 852.0 (m) PAYLOAD

Associated space launch

The NOAA K, L and M POES satellites begin the fifth generation of improved environmental monitoring in support of NOAA missions. The instrument payload has significant improvements and additions/deletions. The instrument changes have effected the spacecraft subsystems and data formats.

NOAA 16 DEB was lifted into orbit during the mission ‘Titan II SLV | NOAA 16’, on board a Titan II SLV space rocket.

The launch took place on Sept. 21, 2000, 10:22 a.m. from Space Launch Complex 4W.

For more information about the launch, click the button.

Launch to space Titan II SLV | NOAA 16
Titan II SLV | NOAA 16

Agency: N/A

Status: Launch Successful

Launch date: Sept. 21, 2000, 10:22 a.m. UTC

Rocket: Titan II SLV

Launch pad: Space Launch Complex 4W

Location: Vandenberg SFB, CA, USA

...

Latest news about this satellite

There are no fresh news available about this satellite. Check back as we update our databases every day.


Newsletter sign-up

Weekly statistics, charts and insights to help you stay on top of the space industry.